Location: Newark
(43.4306°N, 0.3089°E)
Time: 12:50:00
(UTC+00:00)

Vanguard 3 - Pass Details

Date: 03 September 2019
Orbit: 508 x 3263 km, 33.4° (Epoch: 14 September)

Event Time Altitude Azimuth Distance (km) Brightness Sun altitude
Rises 14:41:05 0° 252° (WSW) 6,807 12.7 39.5°
Reaches altitude 10° 14:46:18 10° 248° (WSW) 5,466 12.6 38.7°
Maximum altitude 15:00:23 49° 180° (S) 2,259 10.2 36.4°
Drops below altitude 10° 15:08:35 10° 108° (ESE) 3,263 10.0 35.1°
Sets 15:10:55 0° 103° (ESE) 3,948 10.3 34.7°
